STARLINK-36748, 67693

Orbit data source: Space-Track

STARLINK-36748, 67693 is a payload satellite owned by SpaceX/Seattle (US) in SSO that was launched on Sat, 07 Feb 2026 UTC via an FALCON 9 launch vehicle from the Air Force Western Test Range (AFWTR). Payload-class satellites include a variety of spacecraft equipped with specific instruments for various scientific and technological missions. These include communications satellites like Starlink; space stations such as the ISS; scientific satellites like the Hubble; Earth observation satellites from companies like Planet Labs, Umbra, and HawkEye 360; GPS; miniature CubeSats for education and research; and military/defense satellites.

Loading next visibility...
Identifier
67693, 2026-025A
Orbit
SSO
Country
Flag of USUS
Related business
Manufacturer
SpaceX/Seattle
Mission
Operational spacecraft
Bus & Motor
STARLINK V2MO, Unknown motor
Mass
575 kg wet, ~530 kg dry
Launch date (UTC)
2026-02-07 (2 months ago)
Launch vehicle
FALCON 9
Launch site
Air Force Western Test Range (AFWTR)
Object type
Payload
Rocket body
Debris
Shape & HBR
Unknown shape, 17.7 m
Radar Cross Section
RCS unknown

Expand to show TLE details & history
Last TLE update: 15 hours ago

TLE from 15 hours ago
0 STARLINK-36748
1 67693U 26025A   26103.72679317  .00018534  00000-0  55967-3 0  9996
2 67693  97.2841 215.9384 0000710 353.5152   6.6082 15.34304134 11381
Epoch: 2026-04-13T17:26Z
TLE epoch observation values (Epoch: 2026-04-13T17:26:34.929Z)
Latitude
-0.00004°
Longitude
112.37962°
Altitude
465.619 km
Speed
7.634 km/s
True Right ascension
14h 23m 45s
True Declination
0° 00' 00"
Sunlit
Object was in full shadow at epoch
Visualization orbit readout
Latitude
Unknown
Longitude
Unknown
Altitude
Unknown
Speed
Unknown
Apparent Right ascension
Unknown
Apparent Declination
Unknown
Sunlit
N/A
Visualization observer readout
Local Sidereal Time
15:07:43
Azimuth
Unknown
Elevation
Unknown
Doppler factor
Unknown
Orbital elements
Apogee altitude
460.415 km
Perigee altitude
459.444 km
Semi-major axis
6,838.067 km
Eccentricity
0.00007
Inclination
97.2841°
RAAN
215.9384°
Arg. of periapsis
353.5152°
True anomaly
6.60914°
Mean anomaly
6.6082°
Eccentric anomaly
6.60867°
Mean motion
3.83834 °/min
Orbital period
93.79 mins
BSTAR
0.00055967
Loading maneuver chart data...
Computing Atmospheric mass density...
Loading historical data...
Loading historical data...
Loading historical data...
Loading historical data...
Loading historical data...
Loading historical data...
Loading historical data...

Documentation

Showing up to 5 results
|